Date String (YYYY-MM-DD hh:mm:ss) UTC,Instrument flags,Ambient pressure (hPa),Sample flow (lpm),Bypass flow (lpm),Sample temperature (°C),Ambient temperature (°C),ASC tube jacket temperature (°C),LED temperature (°C),Box temperature (°C),Sample RH (%),Span deviation,Mass concentration (μg/m³),Mass concentration (μg/m³),Mass concentration (μg/m³)
DateTimeUTC,F1_M11,P_M11,Q1_M11,Q2_M11,T1_M11,T2_M11,T3_M11,T4_M11,T5_M11,U1_M11,ZSPAN_M11,X0_M11,X2_M11,X1_M11
2023-01-30 10:00:00,,0825.0,5.01,0.00,22.8,23.1,00.0,31.5,24.8,03.6,0000.0,0007.56,0004.64,0004.28
2023-01-30 10:01:00,,0825.0,5.00,0.00,22.8,22.5,00.0,31.5,24.6,03.6,0000.0,0007.64,0004.63,0004.26
2023-01-30 10:02:00,,0824.9,5.00,0.00,22.7,21.9,00.0,31.5,24.5,03.6,0000.0,0007.62,0004.60,0004.24
2023-01-30 10:03:00,,0825.1,5.00,0.00,22.7,21.5,00.0,31.5,24.3,03.6,0000.0,0007.57,0004.56,0004.22
2023-01-30 10:04:00,,0825.1,5.01,0.00,22.6,21.2,00.0,31.5,24.2,03.6,0000.1,0007.53,0004.53,0004.20
2023-01-30 10:05:00,,0825.1,5.00,0.00,22.6,20.9,00.0,31.5,24.1,03.6,0001.1,0007.49,0004.51,0004.18
2023-01-30 10:06:00,,0825.0,4.99,0.00,22.5,20.7,00.0,31.5,24.1,03.6,0001.2,0007.43,0004.48,0004.16
2023-01-30 10:07:00,,0825.0,5.00,0.00,22.5,21.3,00.0,31.5,24.2,03.6,0000.9,0007.34,0004.44,0004.14
2023-01-30 10:08:00,,0825.1,4.99,0.00,22.6,22.2,00.0,31.4,24.5,03.6,0001.0,0007.33,0004.43,0004.12
2023-01-30 10:09:00,,0825.2,4.99,0.00,22.7,22.9,00.0,31.4,24.7,03.6,0001.0,0007.35,0004.42,0004.10
2023-01-30 10:10:00,,0825.2,5.01,0.00,22.8,23.1,00.0,31.5,24.8,03.6,0001.1,0007.36,0004.41,0004.08
2023-01-30 10:11:00,,0825.1,5.00,0.00,22.8,22.5,00.0,31.5,24.7,03.6,0001.5,0007.36,0004.41,0004.07
2023-01-30 10:12:00,,0825.1,5.01,0.00,22.8,22.0,00.0,31.5,24.5,03.6,0002.0,0007.29,0004.41,0004.08
2023-01-30 10:13:00,,0825.0,4.99,0.00,22.7,21.6,00.0,31.5,24.3,03.6,0002.2,0007.28,0004.42,0004.08
2023-01-30 10:14:00,,0825.1,5.00,0.00,22.7,21.2,00.0,31.5,24.2,03.6,0002.5,0007.39,0004.46,0004.09
2023-01-30 10:15:00,,0825.2,5.00,0.00,22.6,21.0,00.0,31.5,24.2,03.6,0002.2,0007.47,0004.48,0004.09
2023-01-30 10:16:00,,0825.1,4.98,0.00,22.6,20.8,00.0,31.5,24.1,03.6,0002.5,0007.49,0004.49,0004.10
2023-01-30 10:17:00,,0825.0,5.02,0.00,22.5,20.7,00.0,31.5,24.1,03.6,0002.4,0007.51,0004.50,0004.11
2023-01-30 10:18:00,,0824.9,5.02,0.00,22.6,21.6,00.0,31.5,24.3,03.6,0002.6,0007.58,0004.53,0004.12
2023-01-30 10:19:00,,0824.9,5.00,0.00,22.7,22.5,00.0,31.4,24.6,03.6,0002.7,0007.60,0004.54,0004.15
2023-01-30 10:20:00,,0824.9,5.00,0.00,22.8,23.3,00.0,31.5,24.8,03.6,0002.6,0007.57,0004.53,0004.15
2023-01-30 10:21:00,,0824.9,4.97,0.00,22.8,23.0,00.0,31.5,24.8,03.6,0002.4,0007.58,0004.53,0004.15
2023-01-30 10:22:00,,0824.9,5.00,0.00,22.8,22.4,00.0,31.5,24.6,03.6,0002.7,0007.47,0004.49,0004.13
2023-01-30 10:23:00,,0824.9,4.99,0.00,22.8,21.9,00.0,31.6,24.5,03.6,0002.6,0007.60,0004.46,0004.10
2023-01-30 10:24:00,,0825.0,5.00,0.00,22.7,21.5,00.0,31.6,24.4,03.6,0002.2,0007.53,0004.42,0004.08
2023-01-30 10:25:00,,0825.0,5.00,0.00,22.7,21.2,00.0,31.6,24.2,03.6,0002.0,0007.44,0004.38,0004.08
2023-01-30 10:26:00,,0825.0,5.01,0.00,22.6,20.9,00.0,31.5,24.2,03.6,0001.7,0007.57,0004.35,0004.07
2023-01-30 10:27:00,,0824.9,5.00,0.00,22.6,20.7,00.0,31.5,24.1,03.6,0001.7,0007.84,0004.33,0004.07
2023-01-30 10:28:00,,0824.9,5.01,0.00,22.5,20.9,00.0,31.5,24.1,03.6,0001.7,0007.84,0004.33,0004.08
2023-01-30 10:29:00,,0824.9,5.00,0.00,22.6,21.9,00.0,31.5,24.4,03.6,0001.4,0007.81,0004.32,0004.08
2023-01-30 10:30:00,,0825.0,4.99,0.00,22.7,22.8,00.0,31.4,24.6,03.6,0001.6,0007.92,0004.38,0004.11
2023-01-30 10:31:00,,0825.1,4.99,0.00,22.8,23.3,00.0,31.5,24.8,03.6,0001.8,0008.01,0004.43,0004.14
2023-01-30 10:32:00,,0824.9,4.99,0.00,22.9,22.7,00.0,31.5,24.7,03.6,0001.8,0008.02,0004.44,0004.14
2023-01-30 10:33:00,,0824.7,5.00,0.00,22.8,22.2,00.0,31.6,24.6,03.6,0000.9,0008.01,0004.43,0004.13
2023-01-30 10:34:00,,0824.9,5.00,0.00,22.8,21.7,00.0,31.6,24.4,03.6,0001.2,0007.94,0004.50,0004.18
2023-01-30 10:35:00,,0824.9,5.01,0.00,22.7,21.3,00.0,31.6,24.3,03.6,0001.6,0008.18,0004.63,0004.27
2023-01-30 10:36:00,,0824.9,5.01,0.00,22.6,20.9,00.0,31.5,24.2,03.6,0001.9,0008.42,0004.76,0004.34
2023-01-30 10:37:00,,0824.8,5.02,0.00,22.6,20.7,00.0,31.5,24.0,03.6,0002.7,0008.45,0004.90,0004.43
2023-01-30 10:38:00,,0824.9,5.00,0.00,22.5,21.2,00.0,31.5,24.2,03.6,0002.8,0008.30,0005.01,0004.50
2023-01-30 10:39:00,,0824.9,5.00,0.00,22.6,22.2,00.0,31.5,24.5,03.6,0002.4,0008.50,0005.12,0004.57
2023-01-30 10:40:00,,0824.9,5.03,0.00,22.8,23.0,00.0,31.5,24.7,03.6,0002.6,0008.70,0005.23,0004.65
2023-01-30 10:41:00,,0824.8,5.01,0.00,22.8,23.0,00.0,31.5,24.7,03.6,0002.6,0008.82,0005.30,0004.70
2023-01-30 10:42:00,,0824.7,5.01,0.00,22.8,22.3,00.0,31.5,24.6,03.6,0002.4,0009.01,0005.39,0004.75
2023-01-30 10:43:00,,0824.7,5.00,0.00,22.7,21.7,00.0,31.6,24.4,03.6,0003.0,0009.15,0005.48,0004.83
2023-01-30 10:44:00,,0824.8,4.99,0.00,22.7,21.2,00.0,31.5,24.2,03.6,0003.3,0009.36,0005.60,0004.91
2023-01-30 10:45:00,,0824.9,5.01,0.00,22.6,20.9,00.0,31.5,24.1,03.6,0003.3,0009.46,0005.67,0004.96
2023-01-30 10:46:00,,0824.9,4.98,0.00,22.5,20.6,00.0,31.5,24.0,03.6,0003.3,0009.49,0005.70,0004.98
2023-01-30 10:47:00,,0824.8,5.01,0.00,22.4,20.5,00.0,31.5,23.9,03.6,0003.1,0009.48,0005.69,0004.98
2023-01-30 10:48:00,,0824.8,5.03,0.00,22.5,21.4,00.0,31.4,24.2,03.6,0003.0,0009.46,0005.68,0004.98
2023-01-30 10:49:00,,0824.9,4.99,0.00,22.6,22.3,00.0,31.4,24.4,03.6,0003.1,0009.50,0005.69,0004.98
2023-01-30 10:50:00,,0824.9,5.01,0.00,22.7,22.9,00.0,31.4,24.6,03.6,0003.1,0009.76,0005.75,0004.98
2023-01-30 10:51:00,,0824.9,5.00,0.00,22.7,22.5,00.0,31.5,24.6,03.6,0003.1,0010.30,0005.74,0004.97
2023-01-30 10:52:00,,0824.8,5.00,0.00,22.7,21.9,00.0,31.5,24.4,03.6,0003.2,0010.28,0005.74,0004.97
2023-01-30 10:53:00,,0824.7,5.01,0.00,22.6,21.3,00.0,31.5,24.2,03.6,0003.0,0010.21,0005.71,0004.96
2023-01-30 10:54:00,,0824.6,4.99,0.00,22.5,20.9,00.0,31.5,24.0,03.6,0002.8,0010.33,0005.74,0004.96
2023-01-30 10:55:00,,0824.7,5.01,0.00,22.4,20.5,00.0,31.4,23.9,03.6,0002.6,0010.41,0005.78,0004.96
2023-01-30 10:56:00,,0824.7,5.00,0.00,22.4,20.4,00.0,31.4,23.8,03.6,0002.6,0010.59,0005.83,0004.97
2023-01-30 10:57:00,,0824.6,5.02,0.00,22.4,21.3,00.0,31.3,24.1,03.6,0002.2,0010.56,0005.80,0004.95
2023-01-30 10:58:00,,0824.6,5.00,0.00,22.5,22.2,00.0,31.3,24.3,03.6,0002.4,0010.53,0005.79,0004.94
2023-01-30 10:59:00,,0824.7,4.99,0.00,22.6,22.8,00.0,31.3,24.5,03.6,0002.5,0010.56,0005.80,0004.95
